User: anonymous   Login
Location: Albany
(35.0000°S, 118.0000°E)
Time: 00:56:14
(UTC-04:00)
Language:

Transit 2A - Orbit

View from above orbital plane
View from above orbital plane
View from above satellite
View from above satellite

Ground track
Ground track

The orbit data is extracted from the following two-line orbital elements,

1 00045U 60007A   15186.41311314  .00000131  00000-0  59663-4 0  9999
2 00045 066.6949 107.3203 0258285 193.8933 165.4971 14.33365035863400
Epoch (UTC): 05 July 2015 09:54:52
Eccentricity: 0.0258285
inclination: 66.6949°
perigee height: 595 km
apogee height: 965 km
right ascension of ascending node: 107.3203°
argument of perigee: 193.8933°
revolutions per day: 14.33365035
mean anomaly at epoch: 165.4971°
orbit number at epoch: 86340

The dashed part of the orbit path shows where the satellite is in the earth's shadow,  

DLR